National Weather Service United States Department of Commerce

Observations from across/near northern Michigan

Marine Observations

Michigan Hourly Observations

 

Yesterday's high, low and precipitation reports from across northern Michigan

Northern Michigan Temperatures and Precipitation

 

Observation Text Products


909
SXUS83 KAPX 280626
OMRAPX

Marine Observations
National Weather Service Gaylord MI
226 AM EDT Sun May 28 2017

WIND DATA (KTS) WAVES
SITE DATE/TIME DIR SPEED GUST (FT) SITE NAME
--------------------------------------------------

Lake Superior/St Marys River

GRMM4 280540Z 190 9 12 Grand Marais
WFPM4 280540Z 200 3 6 Whitefish Point
PTIM4 280600Z 130 5 8 Point Iroquois
CYAM 280600Z 90 5 SOO (Canada)
KANJ 280555Z 90 3 Sault Ste Marie
SWPM4 280600Z 100 2 3 S.W. Pier
LTRM4 280600Z CALM Little Rapids
RCKM4 280600Z CALM Rock Cut
WNEM4 280600Z 130 1 2 West Nebish Island

Lake Huron

DTLM4 280600Z 160 8 10 DeTour Village
KDRM 280615Z 150 6 Drummond Island
KMCD 280615Z CALM Mackinac Island
MACM4 280600Z 100 4 5 Mackinac City
KSLH 280615Z CALM Cheboygan Airport
CYGM4 280555Z CALM Cheboygan Marina
SRLM4 280600Z 130 14 Spectacle Reef Light
KPZQ 280615Z 200 8 Rogers City
PRIM4 280555Z 200 5 14 Presque Isle Light
KAPN 280554Z CALM Alpena Guard Base
45162 280600Z 190 4 6 0.7 Thunder Bay Buoy
SPTM4 280555Z 190 1 5 Sturgeon Point Light
KOSC 280613Z 270 6 Oscoda
TAWM4 280540Z CALM Tawas Point
GSLM4 280540Z 130 14 Gravelly Shoals
45003 280550Z 160 4 6 0.3 Northern Lake Huron Buoy
45008 280550Z 190 4 6 0.0 Central Lake Huron Buoy
45163 280600Z 140 8 10 1.0 Saginaw Bay Buoy
KP58 280551Z 170 5 Port Hope

Lake Michigan

45175 280620Z 120 4 6 0.3 Mackinac Straits West Buoy
45002 280550Z 170 8 10 0.7 Northern Lake Michigan Buoy
KISQ 280614Z 150 5 Manistique
PNLM4 280600Z 140 3 4 Port Inland
NABM4 280600Z CALM Naubinway
WSLM4 280600Z 90 7 White Shoal Light
KSJX 280615Z CALM St James
KPLN 280554Z CALM Pellston
KMGN 280614Z CALM Harbor Springs
45022 280620Z 120 6 0.3 Little Traverse Bay Buoy
KCVX 280614Z 130 3 Charlevoix
GTLM4 280540Z 190 4 9 Grand Traverse Light
KTVC 280553Z CALM Traverse City
KFKS 280615Z CALM Frankfort
MEEM4 280540Z 140 6 9 Manistee Harbor
BSBM4 280540Z 160 4 6 Big Sable Point
LDTM4 280600Z 90 2 3 Ludington
KLDM 280615Z CALM Ludington Airport
45024 280620Z 210 4 0.3 Buoy near Ludington



000
ASUS43 KDTX 280610
RWRMI
MICHIGAN HOURLY REGIONAL WEATHER ROUNDUP
NATIONAL WEATHER SERVICE DETROIT/PONTIAC MI
ISSUED BY NATIONAL WEATHER SERVICE GRAND RAPIDS MI
200 AM EDT SUN MAY 28 2017

NOTE: "FAIR" INDICATES FEW OR NO CLOUDS BELOW 12,000 FEET WITH NO
SIGNIFICANT WEATHER AND/OR OBSTRUCTION TO VISIBILITY.

MIZ047>049-052>055-059>063-066>070-074>076-081>083-280700-
SOUTHEAST LOWER MICHIGAN

CITY SKY/WX TMP DP RH WIND PRES REMARKS
ADRIAN CLOUDY 58 55 90 E6 29.83F
6HR MIN TEMP: 58; 6HR MAX TEMP: 69;

ALMA PTCLDY 56 55 96 CALM 29.84F
ANN ARBOR CLOUDY 60 55 83 NE5 29.83F
BAD AXE CLEAR 52 48 86 CALM 29.88R
6HR MIN TEMP: 52; 6HR MAX TEMP: 66;

DETROIT CITY CLEAR 60 53 77 CALM 29.88S
6HR MIN TEMP: 58; 6HR MAX TEMP: 70;

DETROIT CLOUDY 61 55 81 NE5 29.86F
6HR MIN TEMP: 61; 6HR MAX TEMP: 69;

FLINT CLOUDY 57 55 93 S3 29.85F
6HR MIN TEMP: 55; 6HR MAX TEMP: 72;

GROSSE ILE MOCLDY 58 53 85 NE3 29.86R
6HR MIN TEMP: 57; 6HR MAX TEMP: 64;

HILLSDALE CLOUDY 55 52 88 E3 29.83F
HOWELL CLOUDY 57 53 86 SE3 29.84F
6HR MIN TEMP: 57; 6HR MAX TEMP: 71;


CITY SKY/WX TMP DP RH WIND PRES REMARKS
JACKSON CLOUDY 62 55 77 CALM 29.83F
6HR MIN TEMP: 60; 6HR MAX TEMP: 71;

LANSING CLOUDY 62 54 74 CALM 29.84F
6HR MIN TEMP: 59; 6HR MAX TEMP: 72;

MASON CLOUDY 58 56 92 CALM 29.84F
MONROE CLOUDY 60 55 83 NE3 29.84F
6HR MIN TEMP: 60; 6HR MAX TEMP: 66;

MT. CLEMENS CLOUDY 58 55 92 CALM 29.87S
6HR MIN TEMP: 55; 6HR MAX TEMP: 67;

PONTIAC CLOUDY 58 53 84 CALM 29.86F
6HR MIN TEMP: 57; 6HR MAX TEMP: 71;

PORT HOPE N/A 56 49 77 S6 29.85F
6HR MIN TEMP: 55; 6HR MAX TEMP: 60;

PORT HURON N/A 52 50 93 CALM 29.88F FOG
TRI CITIES CLEAR 62 57 83 S8 29.84F
6HR MIN TEMP: 59; 6HR MAX TEMP: 74;

YPSILANTI CLOUDY 60 58 92 NE7 29.85F
6HR MIN TEMP: 60; 6HR MAX TEMP: 71;

$$
MIZ043>046-050>051-056>058-064>065-071>073-077>080-280700-
SOUTHWEST LOWER MICHIGAN

CITY SKY/WX TMP DP RH WIND PRES REMARKS
BATTLE CREEK CLOUDY 58 56 93 S3 29.84F
6HR MIN TEMP: 58; 6HR MAX TEMP: 71;

BENTON HARBOR CLOUDY 58 54 86 CALM 29.82F
6HR MIN TEMP: 55; 6HR MAX TEMP: 66;

BIG RAPIDS CLOUDY 55 51 89 E8 29.84S
6HR MIN TEMP: 55; 6HR MAX TEMP: 73;

COLDWATER CLOUDY 57 56 97 CALM 29.84S
6HR MIN TEMP: 57; 6HR MAX TEMP: 70;

HOLLAND MOCLDY 60 53 77 CALM 29.84F
6HR MIN TEMP: 57; 6HR MAX TEMP: 69;

GRAND RAPIDS PTCLDY 59 57 93 CALM 29.84F
6HR MIN TEMP: 59; 6HR MAX TEMP: 73;

KALAMAZOO CLOUDY 62 56 80 CALM 29.83F
6HR MIN TEMP: 60; 6HR MAX TEMP: 72;

MARSHALL CLOUDY 57 56 98 CALM 29.83F
6HR MIN TEMP: 56; 6HR MAX TEMP: 71;

MOUNT PLEASANT PTCLDY 58 55 91 CALM 29.83F
6HR MIN TEMP: 56; 6HR MAX TEMP: 74;

MUSKEGON CLOUDY 60 54 80 CALM 29.83F
6HR MIN TEMP: 55; 6HR MAX TEMP: 67; 6HR PCP: TRACE;

STURGIS CLOUDY 59 56 92 E6 29.83S
6HR MIN TEMP: 59; 6HR MAX TEMP: 71;

$$
MIZ016>042-280700-
NORTHERN LOWER MICHIGAN

CITY SKY/WX TMP DP RH WIND PRES REMARKS
ALPENA CLOUDY 55 52 89 CALM 29.85F
6HR MIN TEMP: 54; 6HR MAX TEMP: 61;

BEAVER ISLAND CLOUDY 53 50 90 CALM 29.80F
6HR MIN TEMP: 50; 6HR MAX TEMP: 61;

BELLAIRE MOCLDY 55 53 92 CALM 29.82F
6HR MIN TEMP: 55; 6HR MAX TEMP: 70;

CADILLAC CLOUDY 56 55 95 CALM 29.84F
CHARLEVOIX MOCLDY 56 55 97 E3 29.83F
6HR MIN TEMP: 55; 6HR MAX TEMP: 63;

GAYLORD PTCLDY 60 53 77 VRB3 29.84F
6HR MIN TEMP: 59; 6HR MAX TEMP: 73;

HOUGHTON LAKE MOCLDY 56 53 90 CALM 29.84F
6HR MIN TEMP: 56; 6HR MAX TEMP: 72;

MANISTEE MOCLDY 53 51 93 NE3 29.82F
OSCODA CLEAR 51 47 88 SW5 29.85F
6HR MIN TEMP: 50; 6HR MAX TEMP: 62;

PELLSTON PTCLDY 53 51 93 CALM 29.81F
6HR MIN TEMP: 51; 6HR MAX TEMP: 70; 6HR PCP: TRACE;

TRAVERSE CITY CLOUDY 55 52 89 CALM 29.81F
6HR MIN TEMP: 54; 6HR MAX TEMP: 64;

LUDINGTON CLOUDY 54 52 92 CALM 29.82F
6HR MIN TEMP: 51; 6HR MAX TEMP: 66;

$$
MIZ007>008-015-280700-
EASTERN UPPER MICHIGAN

CITY SKY/WX TMP DP RH WIND PRES REMARKS
KINROSS PTCLDY 53 49 86 SE3 29.82F
6HR MIN TEMP: 53; 6HR MAX TEMP: 67;

MACKINAC ISLAN CLOUDY 50 50 100 CALM 29.81F
6HR MIN TEMP: 49; 6HR MAX TEMP: 65;

NEWBERRY CLOUDY 55 51 86 SW6 29.79F
6HR MIN TEMP: 52; 6HR MAX TEMP: 67;

S. S. MARIE MOCLDY 58 51 78 E3 29.81F
6HR MIN TEMP: 58; 6HR MAX TEMP: 72;

$$
MIZ004>006-011>014-085-280700-
CENTRAL UPPER MICHIGAN

CITY SKY/WX TMP DP RH WIND PRES REMARKS
MANISTIQUE CLOUDY 49 46 90 SE8 29.79F
6HR MIN TEMP: 49; 6HR MAX TEMP: 53;

ESCANABA MOCLDY 56 52 86 CALM 29.78F
6HR MIN TEMP: 54; 6HR MAX TEMP: 62;

SAWYER-GWINN CLOUDY 55 53 94 CALM 29.79F
6HR MIN TEMP: 54; 6HR MAX TEMP: 62;

$$
MIZ001>003-009>011-084-280700-
WESTERN UPPER MICHIGAN

CITY SKY/WX TMP DP RH WIND PRES REMARKS
IRON MOUNTAIN MOCLDY 58 50 75 CALM 29.78F
6HR MIN TEMP: 57; 6HR MAX TEMP: 74;

HOUGHTON CLOUDY 51 46 83 CALM 29.77S
6HR MIN TEMP: 49; 6HR MAX TEMP: 66;

COPPER HARBOR N/A 55 52 89 SW8 29.76S
6HR MIN TEMP: 50; 6HR MAX TEMP: 62;

IRONWOOD CLOUDY 60 45 57 SW8 29.78F
6HR MIN TEMP: 54; 6HR MAX TEMP: 68;

$$

ABBREVIATIONS USED IN REMARKS
TC - TEMPERATURE IN CELSIUS
WCI - WIND CHILL INDEX
HX - HEAT INDEX
VSB - VISIBILITY




000
ASUS63 KAPX 280033
RTPAPX


Eastern Upper/Northern Lower Michigan Temperature and Precip Summary
National Weather Service Gaylord MI
833 PM EDT Sat May 27 2017

18 hour High/Low Temperature ending 8 pm EDT
24 hour Precipitation/Snowfall ending 8 pm EDT
Snow Depth observed at 8 pm EDT

.BR APX 0527 ES DH19/TAIRZS/TAIRZI/PPDRZZ/SFDRZZ/SDIRZZ
:..................................................................
: MAX MIN 24 HR SNOW SNOW
:ID LOCATION TEMP TEMP PRECIP FALL DEPTH
:..................................................................
ANJ : Sault Ste Marie : 77 / 53 / 0.00 / 0.0 / 0.0
APN : Alpena : 73 / 45 / 0.00 / 0.0 / 0.0
HTL : Houghton Lake : 75 / 48 / 0.00 / 0.0 / 0.0
PLN : Pellston : 76 / 47 / 0.00 / /
TVC : Traverse City : 76 / 50 / 0.00 / /
GLR : Gaylord : 76 / 52 / T / /
.END

Cooperative Observations
Temperature/Precipitation/Snowfall values are for 24 hour period
ending 8 pm EDT. Snow Depth is observed at 8 pm EDT.
...................................................................
OBS MAX MIN SNOW SNOW
ID LOCATION TIME TEMP TEMP PCPN FALL DEPTH
...................................................................
ONAM4: Onaway 4N :DH1800/ 78 / 47 / 0.00 / 0.0 / 0.0
PICM4: Pickford 3NE :DH1800/ 76 / 50 / 0.00 / 0.0 / 0.0

These data are preliminary and have not undergone final quality
control by the National Climatic Data Center. Therefore...these
data are subject to revision. Final and certified climate data
can be accessed at www.ncdc.noaa.gov.

&&

The following are supplemental temperature and precipitation data.
This includes data which are received from non-National Weather
Service maintained observing systems...as well as reports from
public weather spotters. Data is only partially quality controlled
and is not suitable for official climatological records.

.BR APX 0527 ES DH19/TAIRZS/TAIRZI
:
:Automated Temperature Data--18 hr High/Low ending 8 pm EDT
:..................................................................
: MAX MIN
:ID LOCATION TEMP TEMP
:..................................................................
:
ERY : Newberry : 72 / 51
CIU : Kinross : 74 / 53
MCD : Mackinac Island : 68 / 52
DRM : Drummond Island : 70 / 48
SJX : Beaver Island : 72 / 45
SLH : Cheboygan : 69 / 47
PZQ : Rogers City : 73 / 50
CVX : Charlevoix : 65 / 49
MGN : Harbor Springs : 73 / 48
ACB : Bellaire : 77 / 48
FKS : Frankfort : 69 / 46
GOV : Grayling AAF : 75 / 47
MBL : Manistee : 72 / 45
CAD : Cadillac : 76 / 47
Y31 : West Branch : 74 / 46
OSC : Oscoda : 72 / 46
LDM : Ludington : 70 / 45
RQB : Big Rapids : 74 / 49
MOP : Mount Pleasant : 77 / 51
IKW : Midland : 76 / 51
.END

U.S. Forest Service Remote Automated Weather Stations (RAWS)
Data is only partially quality controlled
18 hour High/Low Temperature ending 8 pm EDT
Minimum Relative Humidity over past 18 hours
12/24 hour Precipitation ending 8 pm EDT
...................................................................
MAX MIN MIN 12 HR 24 HR
ID LOCATION TEMP TEMP RH PRECIP PRECIP
...................................................................
AGRM4: Alger RAWS : 74 / 45 / 51 / 0.00 / 0.00
ATAM4: Atlanta RAWS : 76 / 45 / 42 / 0.00 / 0.00
BCYM4: Barton City RAWS : 75 / 44 / 51 / 0.00 / 0.00
GYGM4: Grayling RAWS : 78 / 48 / 36 / 0.00 / 0.00
INDM4: Indian River RAWS : 78 / 47 / 39 / 0.00 / 0.00
MMOM4: Mio RAWS : 77 / 45 / 44 / 0.00 / 0.00
MTNM4: Manton RAWS : 78 / 47 / 42 / 0.00 / 0.00
NMIM4: N Manitou Island : 69 / 45 / 50 / 0.00 / 0.00
RACM4: Raco RAWS : 75 / 50 / 34 / 0.00 / 0.00
REXM4: Rexton RAWS : 72 / 47 / 52 / 0.00 / 0.00
RSCM4: Roscommon RAWS : 76 / 45 / M / 0.00 / 0.00
RYDM4: Rudyard RAWS : 75 / 48 / 50 / 0.00 / 0.00
SBDM4: The Bear RAWS : 70 / 51 / 50 / 0.00 / 0.00
SCKM4: Silver Creek RAWS : 77 / 42 / 43 / 0.00 / 0.00
WLLM4: Wellston RAWS : 80 / 49 / 38 / 0.00 / 0.00

The following are precipitation reports received by the National
Weather Service in Gaylord...valid for the time period ending
around 8 pm EDT. All reports have been recorded in inches.

Spotter Reports from Eastern Upper and Northern Lower Michigan:

WATER TIME SNOW
LOCATION RAIN SNOW EQUIV PERIOD DEPTH
None received

$$